Back to catalog

CZ-6A DEB

AlivePO
NORAD 56267·DEBRIS·🇨🇳 China

Launched Nov 11, 2022 from Taiyuan Satellite Launch Center

Loading…

Next Passes (next 24 hours)

TLE

FreshSource: Space-Track

Epoch: Sep 12, 2026, 17:11 UTC

1 56267U 22151ACK 26255.71615017  .00036686  00000-0  25222-2 0  9999
2 56267  98.6400 351.7219 0037182 287.0930  72.6222 15.05258766192292

Track CZ-6A DEB in real time with AllMySat

Download on the App Store